• In Belgium
  • List of Countries
  • For 7 days
  • Water Temperature
  • Satellite Maps
  • Weather Map
  • Weather Widgets
  • user-avatar
    Login

    Hourly Weather Adelaide

    Today, 26 July, Wednesday

    Time Temperature Precipitation Wind Pressure Humidity
    00:00 +11°C° 0.1 mm 6 mps 761 mmHg 82%
    01:00 +12°C° 0 mm 5 mps 761 mmHg 81%
    02:00 +12°C° 0 mm 5 mps 762 mmHg 81%
    03:00 +12°C° 0 mm 5 mps 761 mmHg 81%
    04:00 +10°C° 0 mm 5 mps 762 mmHg 82%
    05:00 +11°C° 0 mm 4 mps 762 mmHg 82%
    06:00 +11°C° 0 mm 4 mps 762 mmHg 83%
    07:00 +12°C° 0 mm 4 mps 763 mmHg 79%
    08:00 +13°C° 0 mm 4 mps 763 mmHg 75%
    09:00 +14°C° 0 mm 4 mps 764 mmHg 71%
    10:00 +15°C° 0 mm 4 mps 764 mmHg 67%
    11:00 +16°C° 0 mm 3 mps 764 mmHg 63%
    12:00 +17°C° 0 mm 3 mps 763 mmHg 59%
    13:00 +17°C° 0 mm 3 mps 763 mmHg 59%
    14:00 +17°C° 0 mm 2 mps 763 mmHg 59%
    15:00 +17°C° 0 mm 2 mps 763 mmHg 59%
    16:00 +15°C° 0 mm 2 mps 763 mmHg 65%
    17:00 +14°C° 0 mm 1 mps 763 mmHg 71%
    18:00 +12°C° 0 mm 1 mps 763 mmHg 78%
    19:00 +12°C° 0 mm 1 mps 764 mmHg 79%
    20:00 +12°C° 0 mm 2 mps 764 mmHg 80%
    21:00 +10°C° 0 mm 2 mps 764 mmHg 81%
    22:00 +10°C° 0 mm 2 mps 764 mmHg 82%
    23:00 +10°C° 0 mm 3 mps 763 mmHg 82%

    Tomorrow, 27 July, Thursday

    Time Temperature Precipitation Wind Pressure Humidity
    00:00 +10°C° 0 mm 3 mps 763 mmHg 83%
    01:00 +10°C° 0 mm 4 mps 763 mmHg 79%
    02:00 +10°C° 0 mm 4 mps 762 mmHg 75%
    03:00 +10°C° 0 mm 4 mps 762 mmHg 71%
    04:00 +10°C° 0 mm 4 mps 762 mmHg 68%
    05:00 +9°C° 0 mm 5 mps 761 mmHg 65%
    06:00 +9°C° 0 mm 5 mps 761 mmHg 61%
    07:00 +10°C° 0 mm 6 mps 761 mmHg 59%
    08:00 +13°C° 0 mm 6 mps 760 mmHg 57%
    09:00 +14°C° 0 mm 6 mps 760 mmHg 55%
    10:00 +15°C° 0 mm 7 mps 760 mmHg 54%
    11:00 +17°C° 0 mm 8 mps 759 mmHg 53%
    12:00 +18°C° 0 mm 8 mps 758 mmHg 52%
    13:00 +17°C° 0.3 mm 8 mps 758 mmHg 59%
    14:00 +17°C° 0.3 mm 8 mps 758 mmHg 66%
    15:00 +16°C° 0.3 mm 7 mps 758 mmHg 73%
    16:00 +15°C° 0.2 mm 7 mps 758 mmHg 76%
    17:00 +15°C° 0.2 mm 6 mps 759 mmHg 79%
    18:00 +14°C° 0.2 mm 6 mps 759 mmHg 81%
    19:00 +13°C° 0 mm 5 mps 760 mmHg 81%
    20:00 +12°C° 0 mm 5 mps 761 mmHg 80%
    21:00 +12°C° 0 mm 4 mps 761 mmHg 79%
    22:00 +11°C° 0 mm 4 mps 761 mmHg 79%
    23:00 +11°C° 0 mm 3 mps 761 mmHg 80%

    Day after tomorrow, 28 July, Friday

    Time Temperature Precipitation Wind Pressure Humidity
    00:00 +10°C° 0 mm 3 mps 762 mmHg 80%
    01:00 +10°C° 0 mm 3 mps 762 mmHg 81%
    02:00 +10°C° 0 mm 2 mps 762 mmHg 81%
    03:00 +10°C° 0 mm 2 mps 762 mmHg 82%
    04:00 +9°C° 0 mm 2 mps 762 mmHg 83%
    05:00 +9°C° 0 mm 2 mps 761 mmHg 83%
    06:00 +10°C° 0 mm 1 mps 761 mmHg 84%
    07:00 +10°C° 0 mm 2 mps 762 mmHg 81%
    08:00 +11°C° 0 mm 3 mps 762 mmHg 78%
    09:00 +12°C° 0 mm 4 mps 762 mmHg 75%
    10:00 +13°C° 0 mm 4 mps 761 mmHg 66%
    11:00 +15°C° 0 mm 5 mps 760 mmHg 57%
    12:00 +16°C° 0 mm 5 mps 760 mmHg 49%
    13:00 +17°C° 0 mm 5 mps 759 mmHg 46%
    14:00 +19°C° 0 mm 5 mps 758 mmHg 44%
    15:00 +20°C° 0 mm 5 mps 757 mmHg 41%
    16:00 +19°C° 0 mm 5 mps 757 mmHg 46%
    17:00 +17°C° 0 mm 5 mps 756 mmHg 52%
    18:00 +16°C° 0 mm 5 mps 756 mmHg 57%
    19:00 +16°C° 0 mm 6 mps 756 mmHg 53%
    20:00 +17°C° 0 mm 6 mps 755 mmHg 49%
    21:00 +18°C° 0 mm 7 mps 755 mmHg 44%
    22:00 +18°C° 0 mm 7 mps 755 mmHg 41%
    23:00 +18°C° 0 mm 8 mps 754 mmHg 37%

    29 July, Saturday

    Time Temperature Precipitation Wind Pressure Humidity
    00:00 +20°C° 0 mm 8 mps 754 mmHg 33%
    01:00 +19°C° 0 mm 9 mps 753 mmHg 32%
    02:00 +19°C° 0 mm 9 mps 752 mmHg 32%
    03:00 +19°C° 0 mm 10 mps 751 mmHg 31%
    04:00 +19°C° 0 mm 10 mps 751 mmHg 31%
    05:00 +19°C° 0 mm 10 mps 751 mmHg 31%
    06:00 +19°C° 0 mm 11 mps 751 mmHg 31%
    07:00 +19°C° 0 mm 11 mps 751 mmHg 33%
    08:00 +19°C° 0 mm 11 mps 751 mmHg 35%
    09:00 +21°C° 0 mm 11 mps 751 mmHg 37%
    10:00 +19°C° 0.1 mm 10 mps 751 mmHg 46%
    11:00 +19°C° 0.1 mm 9 mps 751 mmHg 54%
    12:00 +20°C° 0.1 mm 8 mps 751 mmHg 62%
    13:00 +17°C° 1.2 mm 9 mps 751 mmHg 69%
    14:00 +15°C° 1.2 mm 9 mps 751 mmHg 76%
    15:00 +13°C° 1.2 mm 9 mps 751 mmHg 83%
    16:00 +13°C° 1.2 mm 9 mps 752 mmHg 83%
    17:00 +12°C° 1.2 mm 8 mps 752 mmHg 83%
    18:00 +12°C° 1.2 mm 8 mps 753 mmHg 83%
    19:00 +12°C° 0.2 mm 7 mps 753 mmHg 81%
    20:00 +11°C° 0.2 mm 7 mps 754 mmHg 79%
    21:00 +11°C° 0.2 mm 7 mps 754 mmHg 77%
    22:00 +11°C° 0.1 mm 7 mps 754 mmHg 76%
    23:00 +11°C° 0.1 mm 8 mps 754 mmHg 75%

    30 July, Sunday

    Time Temperature Precipitation Wind Pressure Humidity
    00:00 +11°C° 0.1 mm 8 mps 754 mmHg 74%
    01:00 +11°C° 0.1 mm 8 mps 754 mmHg 74%
    02:00 +11°C° 0.1 mm 8 mps 754 mmHg 74%
    03:00 +11°C° 0.1 mm 7 mps 754 mmHg 74%
    04:00 +11°C° 0.1 mm 7 mps 754 mmHg 74%
    05:00 +10°C° 0.1 mm 6 mps 755 mmHg 75%
    06:00 +10°C° 0.1 mm 6 mps 755 mmHg 75%
    07:00 +11°C° 0.2 mm 6 mps 756 mmHg 75%
    08:00 +11°C° 0.2 mm 7 mps 756 mmHg 74%
    09:00 +12°C° 0.2 mm 7 mps 757 mmHg 74%
    10:00 +12°C° 0.4 mm 7 mps 756 mmHg 72%
    11:00 +14°C° 0.4 mm 7 mps 756 mmHg 70%
    12:00 +14°C° 0.4 mm 7 mps 756 mmHg 69%
    13:00 +14°C° 0.4 mm 7 mps 756 mmHg 69%
    14:00 +14°C° 0.4 mm 6 mps 756 mmHg 69%
    15:00 +14°C° 0.4 mm 6 mps 755 mmHg 70%
    16:00 +13°C° 0.7 mm 6 mps 756 mmHg 73%
    17:00 +12°C° 0.7 mm 5 mps 756 mmHg 77%
    18:00 +12°C° 0.7 mm 4 mps 757 mmHg 80%
    19:00 +11°C° 0.8 mm 4 mps 757 mmHg 81%
    20:00 +11°C° 0.8 mm 4 mps 757 mmHg 82%
    21:00 +11°C° 0.8 mm 4 mps 758 mmHg 83%
    22:00 +11°C° 0.8 mm 4 mps 757 mmHg 83%
    23:00 +11°C° 0.8 mm 4 mps 757 mmHg 84%

    31 July, Monday

    Time Temperature Precipitation Wind Pressure Humidity
    00:00 +11°C° 0.8 mm 4 mps 757 mmHg 84%
    01:00 +11°C° 1 mm 4 mps 757 mmHg 84%
    02:00 +11°C° 1 mm 4 mps 757 mmHg 84%
    03:00 +10°C° 1 mm 4 mps 757 mmHg 84%
    04:00 +10°C° 0.7 mm 4 mps 758 mmHg 84%
    05:00 +10°C° 0.7 mm 4 mps 758 mmHg 85%
    06:00 +10°C° 0.7 mm 4 mps 759 mmHg 85%
    07:00 +11°C° 0.1 mm 4 mps 760 mmHg 82%
    08:00 +12°C° 0.1 mm 4 mps 760 mmHg 80%
    09:00 +13°C° 0.1 mm 4 mps 761 mmHg 78%
    10:00 +13°C° 0.1 mm 4 mps 761 mmHg 74%
    11:00 +13°C° 0.1 mm 5 mps 761 mmHg 70%
    12:00 +14°C° 0.1 mm 5 mps 761 mmHg 66%
    13:00 +14°C° 0.1 mm 5 mps 762 mmHg 65%
    14:00 +13°C° 0.1 mm 5 mps 762 mmHg 63%
    15:00 +13°C° 0.1 mm 5 mps 762 mmHg 61%
    16:00 +12°C° 0 mm 5 mps 763 mmHg 63%
    17:00 +11°C° 0 mm 4 mps 764 mmHg 66%
    18:00 +10°C° 0 mm 4 mps 764 mmHg 68%
    19:00 +10°C° 0 mm 3 mps 765 mmHg 69%
    20:00 +9°C° 0 mm 3 mps 765 mmHg 71%
    21:00 +9°C° 0 mm 3 mps 765 mmHg 72%
    22:00 +8°C° 0 mm 3 mps 765 mmHg 73%
    23:00 +8°C° 0 mm 2 mps 765 mmHg 73%
    Show more